Tracking 19854 objects as of 23-Sep-2019
HD Live streaming from Space Station
objects crossing your sky now

FENGYUN 1C DEB

Track FENGYUN 1C DEB now!
10-day predictions


NORAD ID: 35134
Int'l Code: 1999-025DLN
Perigee: 699.4 km
Apogee: 791.6 km
Inclination: 98.9 °
Period: 99.6 minutes
Semi major axis: 7116 km
RCS: 0.0125 m2 (small)
Launch date: May 10, 1999
Source: People's Republic of China (PRC)
Launch site: Taiyaun Space Center, China (TSC)

Note: This is SATELLITE DEBRIS
aabbcc
Your satellite tracking list
Your tracking list is empty




NASA's NSSDC Master Catalog

Two Line Element Set (TLE):
1 35134U 99025DLN 19256.77557698  .00000964  00000-0  27673-3 0  9995
2 35134  98.9256  90.4178 0064811 124.2138 236.5216 14.46118724565174
Source of the keplerian elements: AFSPC